Find Starlink 31183

NORAD ID: 58747 Int'l Des: 2024-005 Owner: SPXS Country: US Constellation: starlink operational
LEOCIRCULAR

リアルタイム位置

3D地球を読み込み中...

Starlink 31183について

説明を読み込み中...

次回通過

Passes for default location (London). Set your location on the main map for personalized predictions.

高度履歴

Loading altitude history...

軌道要素

1 58747U 24005V 26122.45038512 .00002069 00000-0 84712-4 0 9996
2 58747 42.9993 276.3232 0001745 274.0935 85.9717 15.27571095128764
Epoch: May 2, 2026 • Age: 5 hours

現在のステータス

高度 483.5 km
速度 7.63 km/s
衛星直下点 23.20°N, 34.94°W
打ち上げ日 Jan 7, 2024
運用期間 2.3 years
タイプ internet

技術仕様

分類 Payload
質量 730.00 kg
乾燥質量 700.00 kg
総質量 730.00 kg
長さ 0.30 m
直径 4.10 m
スパン 29.00 m
形状 Box + pan
製造者 SPXS
バスタイプ Starlink V2M
フェーズステータス In Orbit
所有者/国 SPXS/US

Most Searched